Time,TemperatureF,DewpointF,PressureIn,WindDirection,WindDirectionDegrees,WindSpeedMPH,WindSpeedGustMPH,Humidity,HourlyPrecipIn,Conditions,Clouds,dailyrainin,SoftwareType,DateUTC
2013-03-02 00:04:00,25.3,23.0,30.32,NW,319,1.0,5.0,91,0.00,,SKC,0.00,VWS V12.07,2013-03-02 06:04:00,
2013-03-02 00:10:00,25.4,23.1,30.31,NW,321,2.0,6.0,91,0.00,,SKC,0.00,VWS V12.07,2013-03-02 06:10:00,
2013-03-02 00:19:00,25.4,23.1,30.32,WNW,300,2.0,8.0,91,0.00,,SKC,0.00,VWS V12.07,2013-03-02 06:19:00,
2013-03-02 00:26:00,25.4,23.1,30.32,WNW,301,2.0,8.0,91,0.00,,SKC,0.00,VWS V12.07,2013-03-02 06:26:00,
2013-03-02 00:34:00,25.3,23.0,30.32,WNW,297,0.0,4.0,91,0.00,,SKC,0.00,VWS V12.07,2013-03-02 06:34:00,
2013-03-02 00:39:00,25.3,23.0,30.32,NNW,333,3.0,7.0,91,0.00,,SKC,0.00,VWS V12.07,2013-03-02 06:39:00,
2013-03-02 00:46:00,25.3,23.0,30.32,WNW,283,3.0,7.0,91,0.00,,SKC,0.00,VWS V12.07,2013-03-02 06:46:00,
2013-03-02 00:51:00,25.2,23.0,30.32,NNW,340,3.0,7.0,91,0.00,,SKC,0.00,VWS V12.07,2013-03-02 06:51:00,
2013-03-02 00:58:00,25.2,23.0,30.32,NW,319,1.0,7.0,91,0.00,,SKC,0.00,VWS V12.07,2013-03-02 06:58:00,
2013-03-02 01:03:00,25.2,23.0,30.32,NW,321,0.0,5.0,91,0.00,,SKC,0.00,VWS V12.07,2013-03-02 07:03:00,
2013-03-02 01:10:00,25.2,23.0,30.32,NNW,340,2.0,6.0,91,0.00,,SKC,0.00,VWS V12.07,2013-03-02 07:10:00,
2013-03-02 01:16:00,25.1,22.9,30.32,North,360,1.0,6.0,91,0.00,,SKC,0.00,VWS V12.07,2013-03-02 07:16:00,
2013-03-02 01:24:00,25.1,22.9,30.33,NNE,22,2.0,6.0,91,0.00,,SKC,0.00,VWS V12.07,2013-03-02 07:24:00,
2013-03-02 01:30:00,25.1,22.9,30.33,North,349,3.0,6.0,91,0.00,,SKC,0.00,VWS V12.07,2013-03-02 07:30:00,
2013-03-02 01:36:00,25.1,22.9,30.32,NW,320,2.0,5.0,91,0.00,,SKC,0.00,VWS V12.07,2013-03-02 07:36:00,
2013-03-02 01:41:00,25.0,22.8,30.33,NE,44,1.0,6.0,91,0.00,,SKC,0.00,VWS V12.07,2013-03-02 07:41:00,
2013-03-02 01:48:00,25.0,22.8,30.32,NNE,14,0.0,6.0,91,0.00,,SKC,0.00,VWS V12.07,2013-03-02 07:48:00,
2013-03-02 01:53:00,25.0,22.8,30.32,North,360,2.0,6.0,91,0.00,,SKC,0.00,VWS V12.07,2013-03-02 07:53:00,
2013-03-02 02:00:00,25.1,22.9,30.32,NW,320,2.0,7.0,91,0.00,,SKC,0.00,VWS V12.07,2013-03-02 08:00:00,
2013-03-02 02:06:00,25.1,22.9,30.32,North,358,2.0,6.0,91,0.00,,SKC,0.00,VWS V12.07,2013-03-02 08:06:00,
2013-03-02 02:11:00,25.1,22.9,30.32,NW,324,1.0,6.0,91,0.00,,SKC,0.00,VWS V12.07,2013-03-02 08:11:00,
2013-03-02 02:16:00,25.1,22.9,30.32,NNW,333,1.0,6.0,91,0.00,,SKC,0.00,VWS V12.07,2013-03-02 08:16:00,
2013-03-02 02:24:00,25.1,22.9,30.32,NW,315,1.0,6.0,91,0.00,,SKC,0.00,VWS V12.07,2013-03-02 08:24:00,
2013-03-02 02:31:00,25.0,22.8,30.32,NNE,15,2.0,2.0,91,0.00,,SKC,0.00,VWS V12.07,2013-03-02 08:31:00,
2013-03-02 02:36:00,25.0,22.8,30.32,NW,304,0.0,4.0,91,0.00,,SKC,0.00,VWS V12.07,2013-03-02 08:36:00,
2013-03-02 02:41:00,25.0,22.8,30.31,NNW,337,4.0,7.0,91,0.00,,SKC,0.00,VWS V12.07,2013-03-02 08:41:00,
2013-03-02 02:46:00,25.0,22.8,30.31,North,349,1.0,7.0,91,0.00,,SKC,0.00,VWS V12.07,2013-03-02 08:46:00,
2013-03-02 02:55:00,24.9,22.6,30.31,NW,324,5.0,7.0,91,0.00,,SKC,0.00,VWS V12.07,2013-03-02 08:55:00,
2013-03-02 03:04:00,24.8,22.5,30.31,WNW,284,3.0,6.0,91,0.00,,SKC,0.00,VWS V12.07,2013-03-02 09:04:00,
2013-03-02 03:10:00,24.7,22.5,30.31,North,349,0.0,6.0,91,0.00,,SKC,0.00,VWS V12.07,2013-03-02 09:10:00,
2013-03-02 03:16:00,24.7,22.5,30.31,NW,319,3.0,7.0,91,0.00,,SKC,0.00,VWS V12.07,2013-03-02 09:16:00,
2013-03-02 03:24:00,24.7,22.5,30.31,NW,306,2.0,7.0,91,0.00,,SKC,0.00,VWS V12.07,2013-03-02 09:24:00,
2013-03-02 03:30:00,24.7,22.5,30.31,WNW,300,2.0,2.0,91,0.00,,SKC,0.00,VWS V12.07,2013-03-02 09:30:00,
2013-03-02 03:36:00,24.6,22.4,30.31,WNW,285,4.0,6.0,91,0.00,,SKC,0.00,VWS V12.07,2013-03-02 09:36:00,
2013-03-02 03:44:00,24.6,22.4,30.31,NNW,333,0.0,6.0,91,0.00,,SKC,0.00,VWS V12.07,2013-03-02 09:44:00,
2013-03-02 03:50:00,24.6,22.4,30.31,North,354,0.0,6.0,91,0.00,,SKC,0.00,VWS V12.07,2013-03-02 09:50:00,
2013-03-02 03:58:00,24.6,22.1,30.31,NNW,334,3.0,6.0,90,0.00,,SKC,0.00,VWS V12.07,2013-03-02 09:58:00,
2013-03-02 04:03:00,24.6,22.1,30.31,NNE,23,3.0,6.0,90,0.00,,SKC,0.00,VWS V12.07,2013-03-02 10:03:00,
2013-03-02 04:14:00,24.5,22.0,30.31,NW,318,2.0,6.0,90,0.00,,SKC,0.00,VWS V12.07,2013-03-02 10:14:00,
2013-03-02 04:20:00,24.4,21.9,30.31,NW,314,3.0,9.0,90,0.00,,SKC,0.00,VWS V12.07,2013-03-02 10:20:00,
2013-03-02 04:26:00,24.3,21.8,30.31,WNW,289,2.0,9.0,90,0.00,,SKC,0.00,VWS V12.07,2013-03-02 10:26:00,
2013-03-02 04:34:00,24.2,21.7,30.31,NW,320,2.0,7.0,90,0.00,,SKC,0.00,VWS V12.07,2013-03-02 10:34:00,
2013-03-02 04:41:00,24.3,21.8,30.31,NNE,26,1.0,7.0,90,0.00,,SKC,0.00,VWS V12.07,2013-03-02 10:41:00,
2013-03-02 04:46:00,24.3,21.5,30.31,NW,326,1.0,7.0,89,0.00,,SKC,0.00,VWS V12.07,2013-03-02 10:46:00,
2013-03-02 04:51:00,24.2,21.4,30.31,NW,312,0.0,7.0,89,0.00,,SKC,0.00,VWS V12.07,2013-03-02 10:51:00,
2013-03-02 04:56:00,24.0,21.2,30.31,NW,312,2.0,7.0,89,0.00,,SKC,0.00,VWS V12.07,2013-03-02 10:56:00,
2013-03-02 05:01:00,23.9,21.1,30.31,NW,312,2.0,2.0,89,0.00,,SKC,0.00,VWS V12.07,2013-03-02 11:01:00,
2013-03-02 05:08:00,23.7,20.9,30.31,NW,312,1.0,4.0,89,0.00,,SKC,0.00,VWS V12.07,2013-03-02 11:08:00,
2013-03-02 05:13:00,23.6,20.8,30.31,NW,319,1.0,5.0,89,0.00,,SKC,0.00,VWS V12.07,2013-03-02 11:13:00,
2013-03-02 05:20:00,23.4,20.6,30.31,NNW,345,3.0,5.0,89,0.00,,SKC,0.00,VWS V12.07,2013-03-02 11:20:00,
2013-03-02 05:26:00,23.3,20.5,30.31,NW,324,2.0,5.0,89,0.00,,SKC,0.00,VWS V12.07,2013-03-02 11:26:00,
2013-03-02 05:34:00,23.1,20.4,30.32,NNW,341,2.0,4.0,89,0.00,,SKC,0.00,VWS V12.07,2013-03-02 11:34:00,
2013-03-02 05:40:00,23.1,20.4,30.32,NNW,330,1.0,4.0,89,0.00,,SKC,0.00,VWS V12.07,2013-03-02 11:40:00,
2013-03-02 05:48:00,23.0,20.2,30.32,NW,304,3.0,4.0,89,0.00,,SKC,0.00,VWS V12.07,2013-03-02 11:48:00,
2013-03-02 05:53:00,23.0,20.2,30.32,NW,323,2.0,4.0,89,0.00,,SKC,0.00,VWS V12.07,2013-03-02 11:53:00,
2013-03-02 06:00:00,23.0,20.2,30.32,NNW,328,2.0,5.0,89,0.00,,SKC,0.00,VWS V12.07,2013-03-02 12:00:00,
2013-03-02 06:06:00,23.1,20.4,30.32,NNW,332,2.0,6.0,89,0.00,,SKC,0.00,VWS V12.07,2013-03-02 12:06:00,
2013-03-02 06:14:00,23.3,20.3,30.32,NW,322,4.0,6.0,88,0.00,,SKC,0.00,VWS V12.07,2013-03-02 12:14:00,
2013-03-02 06:20:00,23.4,20.4,30.32,NW,316,2.0,7.0,88,0.00,,SKC,0.00,VWS V12.07,2013-03-02 12:20:00,
2013-03-02 06:28:00,23.5,20.5,30.32,NW,316,1.0,7.0,88,0.00,,SKC,0.00,VWS V12.07,2013-03-02 12:28:00,
2013-03-02 06:34:00,23.5,20.5,30.32,WNW,294,2.0,4.0,88,0.00,,SKC,0.00,VWS V12.07,2013-03-02 12:34:00,
2013-03-02 06:40:00,23.6,20.6,30.32,WNW,295,3.0,4.0,88,0.00,,SKC,0.00,VWS V12.07,2013-03-02 12:40:00,
2013-03-02 06:48:00,23.6,20.3,30.33,NW,321,3.0,5.0,87,0.00,,SKC,0.00,VWS V12.07,2013-03-02 12:48:00,
2013-03-02 06:56:00,23.7,20.4,30.32,NW,312,2.0,6.0,87,0.00,,SKC,0.00,VWS V12.07,2013-03-02 12:56:00,
2013-03-02 07:01:00,23.8,20.5,30.32,NW,308,2.0,4.0,87,0.00,,SKC,0.00,VWS V12.07,2013-03-02 13:01:00,
2013-03-02 07:06:00,23.8,20.5,30.33,NNW,343,3.0,5.0,87,0.00,,SKC,0.00,VWS V12.07,2013-03-02 13:06:00,
2013-03-02 07:14:00,24.0,20.7,30.33,NNW,335,1.0,6.0,87,0.00,,SKC,0.00,VWS V12.07,2013-03-02 13:14:00,
2013-03-02 07:20:00,24.1,20.5,30.33,NE,49,0.0,7.0,86,0.00,,SKC,0.00,VWS V12.07,2013-03-02 13:20:00,
2013-03-02 07:29:00,24.2,20.6,30.33,NW,307,3.0,7.0,86,0.00,,SKC,0.00,VWS V12.07,2013-03-02 13:29:00,
2013-03-02 07:36:00,24.4,20.5,30.32,NW,309,2.0,6.0,85,0.00,,SKC,0.00,VWS V12.07,2013-03-02 13:36:00,
2013-03-02 07:41:00,24.5,20.6,30.32,WNW,295,1.0,6.0,85,0.00,,SKC,0.00,VWS V12.07,2013-03-02 13:41:00,
2013-03-02 07:48:00,24.7,20.6,30.32,NW,325,4.0,6.0,84,0.00,,SKC,0.00,VWS V12.07,2013-03-02 13:48:00,
2013-03-02 07:56:00,25.0,20.9,30.32,NNW,334,1.0,6.0,84,0.00,,SKC,0.00,VWS V12.07,2013-03-02 13:56:00,
2013-03-02 08:04:00,25.2,20.5,30.32,WNW,296,4.0,9.0,82,0.00,,SKC,0.00,VWS V12.07,2013-03-02 14:04:00,
2013-03-02 08:10:00,25.4,20.7,30.33,NW,326,4.0,9.0,82,0.00,,SKC,0.00,VWS V12.07,2013-03-02 14:10:00,
2013-03-02 08:19:00,25.6,20.6,30.33,NW,304,5.0,9.0,81,0.00,,SKC,0.00,VWS V12.07,2013-03-02 14:19:00,
2013-03-02 08:26:00,25.9,20.6,30.33,NNW,336,4.0,9.0,80,0.00,,SKC,0.00,VWS V12.07,2013-03-02 14:26:00,
2013-03-02 08:35:00,26.5,20.9,30.32,WNW,298,5.0,6.0,79,0.00,,SKC,0.00,VWS V12.07,2013-03-02 14:35:00,
2013-03-02 08:43:00,27.0,20.8,30.33,NNW,338,3.0,8.0,77,0.00,,SKC,0.00,VWS V12.07,2013-03-02 14:43:00,
2013-03-02 08:50:00,27.4,20.8,30.33,North,358,4.0,10.0,76,0.00,,SKC,0.00,VWS V12.07,2013-03-02 14:50:00,
2013-03-02 08:58:00,27.5,20.3,30.33,NW,312,6.0,10.0,74,0.00,,SKC,0.00,VWS V12.07,2013-03-02 14:58:00,
2013-03-02 09:04:00,27.7,20.5,30.33,NW,309,5.0,8.0,74,0.00,,SKC,0.00,VWS V12.07,2013-03-02 15:04:00,
2013-03-02 09:10:00,27.8,20.3,30.33,WNW,302,4.0,9.0,73,0.00,,SKC,0.00,VWS V12.07,2013-03-02 15:10:00,
2013-03-02 09:16:00,27.8,20.0,30.33,NW,325,4.0,11.0,72,0.00,,SKC,0.00,VWS V12.07,2013-03-02 15:16:00,
2013-03-02 09:24:00,28.0,19.8,30.33,NW,305,3.0,11.0,71,0.00,,SKC,0.00,VWS V12.07,2013-03-02 15:24:00,
2013-03-02 09:33:00,28.2,19.7,30.33,NW,313,3.0,8.0,70,0.00,,SKC,0.00,VWS V12.07,2013-03-02 15:33:00,
2013-03-02 09:40:00,28.7,19.8,30.33,NW,321,6.0,9.0,69,0.00,,SKC,0.00,VWS V12.07,2013-03-02 15:40:00,
2013-03-02 09:46:00,29.0,20.1,30.34,NW,325,4.0,9.0,69,0.00,,SKC,0.00,VWS V12.07,2013-03-02 15:46:00,
2013-03-02 09:54:00,28.8,19.6,30.34,WNW,302,6.0,13.0,68,0.00,,SKC,0.00,VWS V12.07,2013-03-02 15:54:00,
2013-03-02 10:03:00,29.3,20.1,30.34,WNW,289,4.0,7.0,68,0.00,,SKC,0.00,VWS V12.07,2013-03-02 16:03:00,
2013-03-02 10:11:00,29.8,19.8,30.34,NNW,334,4.0,12.0,66,0.00,,SKC,0.00,VWS V12.07,2013-03-02 16:11:00,
2013-03-02 10:18:00,29.7,20.1,30.34,WNW,295,4.0,12.0,67,0.00,,SKC,0.00,VWS V12.07,2013-03-02 16:18:00,
2013-03-02 10:23:00,29.7,19.8,30.34,NNW,328,3.0,12.0,66,0.00,,SKC,0.00,VWS V12.07,2013-03-02 16:23:00,
2013-03-02 10:30:00,29.3,20.1,30.35,WNW,301,12.0,13.0,68,0.00,,SKC,0.00,VWS V12.07,2013-03-02 16:30:00,
2013-03-02 10:36:00,29.1,19.5,30.35,NW,325,2.0,14.0,67,0.00,,SKC,0.00,VWS V12.07,2013-03-02 16:36:00,
2013-03-02 10:41:00,29.3,19.4,30.35,WNW,283,5.0,14.0,66,0.00,,SKC,0.00,VWS V12.07,2013-03-02 16:41:00,
2013-03-02 10:49:00,29.5,19.9,30.35,WNW,295,5.0,14.0,67,0.00,,SKC,0.00,VWS V12.07,2013-03-02 16:49:00,
2013-03-02 10:54:00,29.6,19.6,30.35,WNW,285,5.0,14.0,66,0.00,,SKC,0.00,VWS V12.07,2013-03-02 16:54:00,
2013-03-02 11:00:00,29.6,19.6,30.35,NW,325,11.0,14.0,66,0.00,,SKC,0.00,VWS V12.07,2013-03-02 17:00:00,
2013-03-02 11:06:00,29.8,19.5,30.35,NNE,15,8.0,13.0,65,0.00,,SKC,0.00,VWS V12.07,2013-03-02 17:06:00,
2013-03-02 11:14:00,30.2,20.2,30.34,NNW,336,5.0,13.0,66,0.00,,SKC,0.00,VWS V12.07,2013-03-02 17:14:00,
2013-03-02 11:21:00,30.0,20.0,30.34,NW,325,3.0,13.0,66,0.00,,SKC,0.00,VWS V12.07,2013-03-02 17:21:00,
2013-03-02 11:28:00,30.0,19.7,30.35,WNW,298,3.0,13.0,65,0.00,,SKC,0.00,VWS V12.07,2013-03-02 17:28:00,
2013-03-02 11:33:00,30.0,20.0,30.35,NNE,26,9.0,10.0,66,0.00,,SKC,0.00,VWS V12.07,2013-03-02 17:33:00,
2013-03-02 11:40:00,30.3,20.3,30.35,NNW,338,4.0,14.0,66,0.00,,SKC,0.00,VWS V12.07,2013-03-02 17:40:00,
2013-03-02 11:48:00,30.6,20.2,30.34,NNW,346,10.0,15.0,65,0.00,,SKC,0.00,VWS V12.07,2013-03-02 17:48:00,
2013-03-02 11:53:00,30.7,20.0,30.34,NNW,336,5.0,15.0,64,0.00,,SKC,0.00,VWS V12.07,2013-03-02 17:53:00,
2013-03-02 12:00:00,30.8,20.1,30.34,West,262,6.0,6.0,64,0.00,,SKC,0.00,VWS V12.07,2013-03-02 18:00:00,
2013-03-02 12:08:00,31.0,20.6,30.34,North,5,10.0,11.0,65,0.00,,SKC,0.00,VWS V12.07,2013-03-02 18:08:00,
2013-03-02 12:16:00,31.1,20.0,30.33,NNW,347,5.0,11.0,63,0.00,,SKC,0.00,VWS V12.07,2013-03-02 18:16:00,
2013-03-02 12:21:00,31.2,20.5,30.33,NW,309,5.0,11.0,64,0.00,,SKC,0.00,VWS V12.07,2013-03-02 18:21:00,
2013-03-02 12:28:00,31.3,19.8,30.33,WNW,297,4.0,11.0,62,0.00,,SKC,0.00,VWS V12.07,2013-03-02 18:28:00,
2013-03-02 12:36:00,31.2,20.5,30.32,North,350,3.0,11.0,64,0.00,,SKC,0.00,VWS V12.07,2013-03-02 18:36:00,
2013-03-02 12:44:00,31.5,20.0,30.32,WNW,297,4.0,13.0,62,0.00,,SKC,0.00,VWS V12.07,2013-03-02 18:44:00,
2013-03-02 12:50:00,31.5,20.4,30.32,NW,308,3.0,13.0,63,0.00,,SKC,0.00,VWS V12.07,2013-03-02 18:50:00,
2013-03-02 12:58:00,32.0,20.1,30.32,NW,318,3.0,13.0,61,0.00,,SKC,0.00,VWS V12.07,2013-03-02 18:58:00,
2013-03-02 13:03:00,32.1,20.2,30.32,NNW,328,3.0,6.0,61,0.00,,SKC,0.00,VWS V12.07,2013-03-02 19:03:00,
2013-03-02 13:10:00,32.0,20.1,30.31,WNW,302,4.0,10.0,61,0.00,,SKC,0.00,VWS V12.07,2013-03-02 19:10:00,
2013-03-02 13:16:00,31.8,19.5,30.32,NW,309,9.0,13.0,60,0.00,,SKC,0.00,VWS V12.07,2013-03-02 19:16:00,
2013-03-02 13:24:00,31.2,19.3,30.31,NW,304,8.0,14.0,61,0.00,,SKC,0.00,VWS V12.07,2013-03-02 19:24:00,
2013-03-02 13:30:00,31.3,19.4,30.31,NNW,334,8.0,14.0,61,0.00,,SKC,0.00,VWS V12.07,2013-03-02 19:30:00,
2013-03-02 13:36:00,31.2,19.0,30.31,NW,322,6.0,10.0,60,0.00,,SKC,0.00,VWS V12.07,2013-03-02 19:36:00,
2013-03-02 13:41:00,31.2,19.0,30.31,WNW,298,5.0,10.0,60,0.00,,SKC,0.00,VWS V12.07,2013-03-02 19:41:00,
2013-03-02 13:48:00,31.3,19.4,30.31,WNW,299,1.0,11.0,61,0.00,,SKC,0.00,VWS V12.07,2013-03-02 19:48:00,
2013-03-02 13:53:00,31.8,20.3,30.30,NNW,345,3.0,11.0,62,0.00,,SKC,0.00,VWS V12.07,2013-03-02 19:53:00,
2013-03-02 14:00:00,31.7,19.8,30.30,North,5,3.0,4.0,61,0.00,,SKC,0.00,VWS V12.07,2013-03-02 20:00:00,
2013-03-02 14:08:00,31.7,19.4,30.30,NW,309,8.0,9.0,60,0.00,,SKC,0.00,VWS V12.07,2013-03-02 20:08:00,
2013-03-02 14:13:00,31.4,19.1,30.30,North,351,4.0,11.0,60,0.00,,SKC,0.00,VWS V12.07,2013-03-02 20:13:00,
2013-03-02 14:20:00,31.9,20.4,30.30,WNW,298,6.0,11.0,62,0.00,,SKC,0.00,VWS V12.07,2013-03-02 20:20:00,
2013-03-02 14:28:00,32.1,20.2,30.30,NW,311,4.0,11.0,61,0.00,,SKC,0.00,VWS V12.07,2013-03-02 20:28:00,
2013-03-02 14:33:00,31.8,19.1,30.30,West,278,7.0,10.0,59,0.00,,SKC,0.00,VWS V12.07,2013-03-02 20:33:00,
2013-03-02 14:40:00,31.7,19.0,30.30,NNW,334,3.0,10.0,59,0.00,,SKC,0.00,VWS V12.07,2013-03-02 20:40:00,
2013-03-02 14:46:00,32.0,19.3,30.29,NW,308,6.0,11.0,59,0.00,,SKC,0.00,VWS V12.07,2013-03-02 20:46:00,
2013-03-02 14:51:00,31.9,19.6,30.30,NNW,342,4.0,11.0,60,0.00,,SKC,0.00,VWS V12.07,2013-03-02 20:51:00,
2013-03-02 14:59:00,32.2,19.5,30.30,North,1,3.0,11.0,59,0.00,,SKC,0.00,VWS V12.07,2013-03-02 20:59:00,
2013-03-02 15:06:00,32.1,19.4,30.30,NW,319,4.0,10.0,59,0.00,,SKC,0.00,VWS V12.07,2013-03-02 21:06:00,
2013-03-02 15:14:00,32.0,18.9,30.30,WNW,295,3.0,10.0,58,0.00,,SKC,0.00,VWS V12.07,2013-03-02 21:14:00,
2013-03-02 15:23:00,32.3,19.2,30.30,NW,305,4.0,10.0,58,0.00,,SKC,0.00,VWS V12.07,2013-03-02 21:23:00,
2013-03-02 15:30:00,32.3,19.2,30.30,NW,307,3.0,10.0,58,0.00,,SKC,0.00,VWS V12.07,2013-03-02 21:30:00,
2013-03-02 15:38:00,32.0,18.5,30.30,WNW,295,8.0,11.0,57,0.00,,SKC,0.00,VWS V12.07,2013-03-02 21:38:00,
2013-03-02 15:46:00,32.2,18.7,30.30,NW,305,5.0,11.0,57,0.00,,SKC,0.00,VWS V12.07,2013-03-02 21:46:00,
2013-03-02 15:51:00,32.1,19.4,30.30,NW,305,5.0,11.0,59,0.00,,SKC,0.00,VWS V12.07,2013-03-02 21:51:00,
2013-03-02 15:58:00,31.9,19.2,30.30,NW,321,5.0,12.0,59,0.00,,SKC,0.00,VWS V12.07,2013-03-02 21:58:00,
2013-03-02 16:03:00,31.7,19.0,30.30,NNW,343,2.0,10.0,59,0.00,,SKC,0.00,VWS V12.07,2013-03-02 22:03:00,
2013-03-02 16:10:00,32.1,19.0,30.30,NW,317,6.0,10.0,58,0.00,,SKC,0.00,VWS V12.07,2013-03-02 22:10:00,
2013-03-02 16:16:00,32.0,18.9,30.30,NW,308,4.0,12.0,58,0.00,,SKC,0.00,VWS V12.07,2013-03-02 22:16:00,
2013-03-02 16:24:00,32.0,18.9,30.31,North,349,5.0,12.0,58,0.00,,SKC,0.00,VWS V12.07,2013-03-02 22:24:00,
2013-03-02 16:33:00,31.7,18.6,30.31,NW,307,4.0,9.0,58,0.00,,SKC,0.00,VWS V12.07,2013-03-02 22:33:00,
2013-03-02 16:40:00,31.5,18.4,30.30,NW,321,3.0,10.0,58,0.00,,SKC,0.00,VWS V12.07,2013-03-02 22:40:00,
2013-03-02 16:46:00,31.5,18.8,30.30,NW,310,5.0,10.0,59,0.00,,SKC,0.00,VWS V12.07,2013-03-02 22:46:00,
2013-03-02 16:54:00,31.4,18.7,30.30,WNW,295,6.0,10.0,59,0.00,,SKC,0.00,VWS V12.07,2013-03-02 22:54:00,
2013-03-02 17:01:00,31.1,18.5,30.30,NNW,341,5.0,5.0,59,0.00,,SKC,0.00,VWS V12.07,2013-03-02 23:01:00,
2013-03-02 17:06:00,31.1,18.9,30.31,NW,315,4.0,6.0,60,0.00,,SKC,0.00,VWS V12.07,2013-03-02 23:06:00,
2013-03-02 17:14:00,30.9,18.7,30.30,WNW,302,4.0,7.0,60,0.00,,SKC,0.00,VWS V12.07,2013-03-02 23:14:00,
2013-03-02 17:24:00,30.7,18.5,30.31,NW,310,5.0,8.0,60,0.00,,SKC,0.00,VWS V12.07,2013-03-02 23:24:00,
2013-03-02 17:30:00,30.4,18.6,30.31,NNW,330,3.0,3.0,61,0.00,,SKC,0.00,VWS V12.07,2013-03-02 23:30:00,
2013-03-02 17:38:00,29.8,18.0,30.31,NW,313,3.0,7.0,61,0.00,,SKC,0.00,VWS V12.07,2013-03-02 23:38:00,
2013-03-02 17:44:00,29.4,18.0,30.31,WNW,302,2.0,7.0,62,0.00,,SKC,0.00,VWS V12.07,2013-03-02 23:44:00,
2013-03-02 17:51:00,28.9,17.9,30.31,NW,305,2.0,7.0,63,0.00,,SKC,0.00,VWS V12.07,2013-03-02 23:51:00,
2013-03-02 17:56:00,28.6,18.0,30.31,NW,304,3.0,7.0,64,0.00,,SKC,0.00,VWS V12.07,2013-03-02 23:56:00,
2013-03-02 18:04:00,28.2,18.0,30.31,NW,323,1.0,4.0,65,0.00,,SKC,0.00,VWS V12.07,2013-03-03 00:04:00,
2013-03-02 18:11:00,27.9,17.7,30.31,NW,317,1.0,4.0,65,0.00,,SKC,0.00,VWS V12.07,2013-03-03 00:11:00,
2013-03-02 18:16:00,27.6,17.7,30.30,NW,306,2.0,4.0,66,0.00,,SKC,0.00,VWS V12.07,2013-03-03 00:16:00,
2013-03-02 18:24:00,27.3,17.8,30.31,WNW,301,1.0,4.0,67,0.00,,SKC,0.00,VWS V12.07,2013-03-03 00:24:00,
2013-03-02 18:33:00,27.0,17.5,30.31,NW,316,2.0,4.0,67,0.00,,SKC,0.00,VWS V12.07,2013-03-03 00:33:00,
2013-03-02 18:41:00,27.0,17.5,30.31,NW,311,0.0,6.0,67,0.00,,SKC,0.00,VWS V12.07,2013-03-03 00:41:00,
2013-03-02 18:49:00,26.7,17.6,30.32,NW,308,3.0,6.0,68,0.00,,SKC,0.00,VWS V12.07,2013-03-03 00:49:00,
2013-03-02 18:56:00,26.7,17.6,30.31,NW,316,0.0,6.0,68,0.00,,SKC,0.00,VWS V12.07,2013-03-03 00:56:00,
2013-03-02 19:04:00,26.5,17.4,30.32,NW,308,3.0,5.0,68,0.00,,SKC,0.00,VWS V12.07,2013-03-03 01:04:00,
2013-03-02 19:13:00,26.3,17.5,30.31,NW,308,4.0,5.0,69,0.00,,SKC,0.00,VWS V12.07,2013-03-03 01:13:00,
2013-03-02 19:21:00,26.0,17.2,30.31,NW,307,0.0,5.0,69,0.00,,SKC,0.00,VWS V12.07,2013-03-03 01:21:00,
2013-03-02 19:29:00,25.4,17.3,30.31,NW,314,0.0,5.0,71,0.00,,SKC,0.00,VWS V12.07,2013-03-03 01:29:00,
2013-03-02 19:36:00,24.9,17.2,30.31,NW,304,0.0,2.0,72,0.00,,SKC,0.00,VWS V12.07,2013-03-03 01:36:00,
2013-03-02 19:44:00,24.5,17.1,30.31,NW,307,0.0,2.0,73,0.00,,SKC,0.00,VWS V12.07,2013-03-03 01:44:00,
2013-03-02 19:53:00,23.9,16.8,30.31,NW,304,0.0,2.0,74,0.00,,SKC,0.00,VWS V12.07,2013-03-03 01:53:00,
2013-03-02 20:00:00,23.1,16.1,30.31,NW,304,0.0,0.0,74,0.00,,SKC,0.00,VWS V12.07,2013-03-03 02:00:00,
2013-03-02 20:06:00,22.8,16.4,30.30,NW,304,0.0,0.0,76,0.00,,SKC,0.00,VWS V12.07,2013-03-03 02:06:00,
2013-03-02 20:15:00,22.4,16.0,30.31,WNW,303,0.0,0.0,76,0.00,,SKC,0.00,VWS V12.07,2013-03-03 02:15:00,
2013-03-02 20:24:00,22.0,15.9,30.30,NW,304,0.0,0.0,77,0.00,,SKC,0.00,VWS V12.07,2013-03-03 02:24:00,
2013-03-02 20:30:00,21.9,16.1,30.30,NW,323,0.0,0.0,78,0.00,,SKC,0.00,VWS V12.07,2013-03-03 02:30:00,
2013-03-02 20:36:00,21.8,16.3,30.30,NW,323,0.0,0.0,79,0.00,,SKC,0.00,VWS V12.07,2013-03-03 02:36:00,
2013-03-02 20:45:00,21.5,15.7,30.31,NW,323,0.0,0.0,78,0.00,,SKC,0.00,VWS V12.07,2013-03-03 02:45:00,
2013-03-02 20:53:00,20.8,15.3,30.31,NW,323,0.0,0.0,79,0.00,,SKC,0.00,VWS V12.07,2013-03-03 02:53:00,
2013-03-02 21:00:00,20.2,15.0,30.31,NW,321,0.0,0.0,80,0.00,,SKC,0.00,VWS V12.07,2013-03-03 03:00:00,
2013-03-02 21:08:00,20.0,15.4,30.31,NW,321,0.0,0.0,82,0.00,,SKC,0.00,VWS V12.07,2013-03-03 03:08:00,
2013-03-02 21:14:00,20.8,16.2,30.31,NW,322,0.0,0.0,82,0.00,,SKC,0.00,VWS V12.07,2013-03-03 03:14:00,
2013-03-02 21:20:00,21.0,15.8,30.31,NW,323,0.0,0.0,80,0.00,,SKC,0.00,VWS V12.07,2013-03-03 03:20:00,
2013-03-02 21:28:00,20.0,15.1,30.30,NW,322,0.0,0.0,81,0.00,,SKC,0.00,VWS V12.07,2013-03-03 03:28:00,
2013-03-02 21:34:00,20.0,15.7,30.30,NW,321,0.0,0.0,83,0.00,,SKC,0.00,VWS V12.07,2013-03-03 03:34:00,
2013-03-02 21:40:00,20.1,15.8,30.30,NW,321,0.0,0.0,83,0.00,,SKC,0.00,VWS V12.07,2013-03-03 03:40:00,
2013-03-02 21:49:00,19.3,15.0,30.30,NW,304,0.0,0.0,83,0.00,,SKC,0.00,VWS V12.07,2013-03-03 03:49:00,
2013-03-02 21:56:00,19.6,15.6,30.30,NW,304,0.0,0.0,84,0.00,,SKC,0.00,VWS V12.07,2013-03-03 03:56:00,
2013-03-02 22:04:00,19.8,15.8,30.30,West,280,0.0,1.0,84,0.00,,SKC,0.00,VWS V12.07,2013-03-03 04:04:00,
2013-03-02 22:14:00,20.3,16.2,30.30,WSW,256,0.0,1.0,84,0.00,,SKC,0.00,VWS V12.07,2013-03-03 04:14:00,
2013-03-02 22:21:00,20.3,16.0,30.30,West,274,0.0,1.0,83,0.00,,SKC,0.00,VWS V12.07,2013-03-03 04:21:00,
2013-03-02 22:29:00,19.8,15.5,30.30,West,274,0.0,1.0,83,0.00,,SKC,0.00,VWS V12.07,2013-03-03 04:29:00,
2013-03-02 22:34:00,19.7,15.7,30.30,WNW,284,0.0,0.0,84,0.00,,SKC,0.00,VWS V12.07,2013-03-03 04:34:00,
2013-03-02 22:41:00,19.9,15.9,30.30,WNW,287,0.0,1.0,84,0.00,,SKC,0.00,VWS V12.07,2013-03-03 04:41:00,
2013-03-02 22:49:00,19.7,15.4,30.30,WNW,287,0.0,1.0,83,0.00,,SKC,0.00,VWS V12.07,2013-03-03 04:49:00,
2013-03-02 22:56:00,19.4,15.6,30.30,WNW,297,0.0,2.0,85,0.00,,SKC,0.00,VWS V12.07,2013-03-03 04:56:00,
2013-03-02 23:01:00,19.5,15.7,30.30,WNW,296,0.0,0.0,85,0.00,,SKC,0.00,VWS V12.07,2013-03-03 05:01:00,
2013-03-02 23:08:00,19.5,15.5,30.30,WNW,297,0.0,0.0,84,0.00,,SKC,0.00,VWS V12.07,2013-03-03 05:08:00,
2013-03-02 23:14:00,19.5,15.5,30.30,WNW,297,0.0,0.0,84,0.00,,SKC,0.00,VWS V12.07,2013-03-03 05:14:00,
2013-03-02 23:20:00,19.3,15.3,30.30,WNW,296,0.0,0.0,84,0.00,,SKC,0.00,VWS V12.07,2013-03-03 05:20:00,
2013-03-02 23:29:00,19.1,15.1,30.30,WNW,296,0.0,0.0,84,0.00,,SKC,0.00,VWS V12.07,2013-03-03 05:29:00,
2013-03-02 23:37:00,18.9,14.9,30.29,WNW,297,0.0,0.0,84,0.00,,SKC,0.00,VWS V12.07,2013-03-03 05:37:00,
2013-03-02 23:44:00,18.3,14.6,30.29,WNW,297,0.0,0.0,85,0.00,,SKC,0.00,VWS V12.07,2013-03-03 05:44:00,
2013-03-02 23:53:00,18.0,14.5,30.29,WNW,297,0.0,0.0,86,0.00,,SKC,0.00,VWS V12.07,2013-03-03 05:53:00,